Time,TemperatureF,DewpointF,PressureIn,WindDirection,WindDirectionDegrees,WindSpeedMPH,WindSpeedGustMPH,Humidity,HourlyPrecipIn,Conditions,Clouds,dailyrainin,SoftwareType,DateUTC
2013-06-06 00:03:00,57.9,51.2,29.98,NE,45,4.9,5.5,78,0.00,,,0.00,CWS Microserver 1.4,2013-06-06 05:03:00,
2013-06-06 00:08:00,57.9,51.4,29.98,ENE,64,4.0,5.5,79,0.00,,,0.00,CWS Microserver 1.4,2013-06-06 05:08:00,
2013-06-06 00:13:00,57.7,51.3,29.98,ENE,62,2.4,4.9,79,0.00,,,0.00,CWS Microserver 1.4,2013-06-06 05:13:00,
2013-06-06 00:18:00,57.5,51.1,29.98,East,85,1.3,4.2,79,0.00,,,0.00,CWS Microserver 1.4,2013-06-06 05:18:00,
2013-06-06 00:23:00,57.5,51.3,29.98,NE,46,3.3,4.1,79,0.00,,,0.00,CWS Microserver 1.4,2013-06-06 05:23:00,
2013-06-06 00:28:00,57.5,51.4,29.98,NE,37,3.6,4.3,80,0.00,,,0.00,CWS Microserver 1.4,2013-06-06 05:28:00,
2013-06-06 00:33:00,57.5,51.1,29.98,NE,52,4.0,5.0,79,0.00,,,0.00,CWS Microserver 1.4,2013-06-06 05:33:00,
2013-06-06 00:38:00,57.5,51.2,29.98,NNE,31,3.3,5.0,79,0.00,,,0.00,CWS Microserver 1.4,2013-06-06 05:38:00,
2013-06-06 00:43:00,57.3,51.2,29.98,NNE,30,3.6,5.0,80,0.00,,,0.00,CWS Microserver 1.4,2013-06-06 05:43:00,
2013-06-06 00:48:00,57.0,51.4,29.98,NNE,20,3.5,5.0,81,0.00,,,0.00,CWS Microserver 1.4,2013-06-06 05:48:00,
2013-06-06 00:53:00,56.8,51.2,29.98,NNE,18,3.8,4.1,81,0.00,,,0.00,CWS Microserver 1.4,2013-06-06 05:53:00,
2013-06-06 00:58:00,57.0,51.3,29.98,North,10,3.7,4.3,81,0.00,,,0.00,CWS Microserver 1.4,2013-06-06 05:58:00,
2013-06-06 01:03:00,57.0,51.5,29.99,North,9,3.6,4.3,81,0.00,,,0.00,CWS Microserver 1.4,2013-06-06 06:03:00,
2013-06-06 01:08:00,56.8,51.5,29.98,NE,38,2.7,4.6,82,0.00,,,0.00,CWS Microserver 1.4,2013-06-06 06:08:00,
2013-06-06 01:13:00,56.8,51.4,29.98,NNE,25,2.7,4.6,82,0.00,,,0.00,CWS Microserver 1.4,2013-06-06 06:13:00,
2013-06-06 01:18:00,56.8,51.4,29.98,NNE,23,3.3,4.0,82,0.00,,,0.00,CWS Microserver 1.4,2013-06-06 06:18:00,
2013-06-06 01:23:00,56.8,51.4,29.98,NNE,14,3.7,3.8,82,0.00,,,0.00,CWS Microserver 1.4,2013-06-06 06:23:00,
2013-06-06 01:28:00,56.8,51.4,29.98,North,10,3.5,4.0,82,0.00,,,0.00,CWS Microserver 1.4,2013-06-06 06:28:00,
2013-06-06 01:33:00,56.6,51.4,29.99,NNE,15,3.0,4.0,82,0.00,,,0.00,CWS Microserver 1.4,2013-06-06 06:33:00,
2013-06-06 01:38:00,56.4,51.4,29.99,NNE,16,3.6,3.9,83,0.00,,,0.00,CWS Microserver 1.4,2013-06-06 06:38:00,
2013-06-06 01:43:00,56.4,51.6,29.98,North,4,3.2,4.2,83,0.00,,,0.00,CWS Microserver 1.4,2013-06-06 06:43:00,
2013-06-06 01:48:00,56.3,51.7,29.98,North,11,3.3,4.2,84,0.00,,,0.00,CWS Microserver 1.4,2013-06-06 06:48:00,
2013-06-06 01:53:00,56.1,51.6,29.98,NNE,20,4.2,5.1,84,0.00,,,0.00,CWS Microserver 1.4,2013-06-06 06:53:00,
2013-06-06 01:58:00,56.1,51.6,29.98,NE,38,3.5,5.3,85,0.00,,,0.00,CWS Microserver 1.4,2013-06-06 06:58:00,
2013-06-06 02:03:00,56.3,51.5,29.98,NE,55,5.0,5.3,84,0.00,,,0.00,CWS Microserver 1.4,2013-06-06 07:03:00,
2013-06-06 02:08:00,56.3,51.3,29.98,NE,35,7.4,8.7,83,0.00,,,0.00,CWS Microserver 1.4,2013-06-06 07:08:00,
2013-06-06 02:13:00,55.7,51.2,29.98,NNE,15,6.3,8.7,84,0.00,,,0.00,CWS Microserver 1.4,2013-06-06 07:13:00,
2013-06-06 02:18:00,55.4,51.0,29.98,NNE,17,5.5,7.6,85,0.00,,,0.00,CWS Microserver 1.4,2013-06-06 07:18:00,
2013-06-06 02:23:00,54.8,50.7,29.98,NNE,27,5.6,7.5,86,0.00,,,0.00,CWS Microserver 1.4,2013-06-06 07:23:00,
2013-06-06 02:28:00,54.6,50.5,29.98,NNE,24,5.3,6.8,86,0.00,,,0.00,CWS Microserver 1.4,2013-06-06 07:28:00,
2013-06-06 02:33:00,54.1,50.2,29.98,NNE,30,6.0,7.1,86,0.00,,,0.00,CWS Microserver 1.4,2013-06-06 07:33:00,
2013-06-06 02:38:00,53.9,50.2,29.98,NNE,26,5.9,7.3,87,0.00,,,0.00,CWS Microserver 1.4,2013-06-06 07:38:00,
2013-06-06 02:43:00,53.7,50.2,29.98,NNE,17,6.0,7.3,87,0.00,,,0.00,CWS Microserver 1.4,2013-06-06 07:43:00,
2013-06-06 02:48:00,53.2,49.9,29.98,NNE,19,5.6,7.3,88,0.00,,,0.00,CWS Microserver 1.4,2013-06-06 07:48:00,
2013-06-06 02:53:00,53.0,49.9,29.98,NNE,28,6.2,7.5,89,0.00,,,0.00,CWS Microserver 1.4,2013-06-06 07:53:00,
2013-06-06 02:58:00,53.0,50.1,29.98,NNE,33,5.0,7.5,90,0.00,,,0.00,CWS Microserver 1.4,2013-06-06 07:58:00,
2013-06-06 03:03:00,53.4,50.4,29.98,NNE,31,5.4,7.5,89,0.00,,,0.00,CWS Microserver 1.4,2013-06-06 08:03:00,
2013-06-06 03:08:00,53.2,50.1,29.98,NNE,24,5.3,7.5,89,0.00,,,0.00,CWS Microserver 1.4,2013-06-06 08:08:00,
2013-06-06 03:13:00,52.8,49.9,29.98,NNE,26,5.5,6.4,89,0.00,,,0.00,CWS Microserver 1.4,2013-06-06 08:13:00,
2013-06-06 03:18:00,52.8,50.0,29.97,NNE,20,3.7,7.5,90,0.00,,,0.00,CWS Microserver 1.4,2013-06-06 08:18:00,
2013-06-06 03:23:00,53.2,50.3,29.97,NE,41,5.5,7.9,90,0.00,,,0.00,CWS Microserver 1.4,2013-06-06 08:23:00,
2013-06-06 03:28:00,53.2,50.3,29.97,NNE,22,5.2,7.9,89,0.00,,,0.00,CWS Microserver 1.4,2013-06-06 08:28:00,
2013-06-06 03:33:00,53.0,50.2,29.97,NNE,27,5.0,7.7,90,0.00,,,0.00,CWS Microserver 1.4,2013-06-06 08:33:00,
2013-06-06 03:38:00,52.8,50.1,29.97,NNE,31,6.2,6.4,90,0.00,,,0.00,CWS Microserver 1.4,2013-06-06 08:38:00,
2013-06-06 03:43:00,52.8,50.1,29.97,NE,36,5.9,6.5,90,0.00,,,0.00,CWS Microserver 1.4,2013-06-06 08:43:00,
2013-06-06 03:48:00,52.8,50.2,29.97,NE,37,4.4,8.3,90,0.00,,,0.00,CWS Microserver 1.4,2013-06-06 08:48:00,
2013-06-06 03:53:00,53.0,50.4,29.97,NE,34,6.2,9.4,90,0.00,,,0.00,CWS Microserver 1.4,2013-06-06 08:53:00,
2013-06-06 03:58:00,53.0,50.3,29.97,NE,37,8.6,9.7,90,0.00,,,0.00,CWS Microserver 1.4,2013-06-06 08:58:00,
2013-06-06 04:03:00,53.2,50.3,29.97,NE,42,8.5,9.7,90,0.00,,,0.00,CWS Microserver 1.4,2013-06-06 09:03:00,
2013-06-06 04:08:00,53.2,50.3,29.96,NE,49,9.5,10.9,89,0.00,,,0.00,CWS Microserver 1.4,2013-06-06 09:08:00,
2013-06-06 04:13:00,52.8,49.9,29.97,NNE,28,8.4,10.9,89,0.00,,,0.00,CWS Microserver 1.4,2013-06-06 09:13:00,
2013-06-06 04:18:00,52.8,50.1,29.97,NNE,25,6.2,10.3,90,0.00,,,0.00,CWS Microserver 1.4,2013-06-06 09:18:00,
2013-06-06 04:23:00,52.8,50.1,29.97,NNE,29,6.8,9.7,90,0.00,,,0.00,CWS Microserver 1.4,2013-06-06 09:23:00,
2013-06-06 04:28:00,52.7,50.1,29.97,NNE,13,3.4,9.0,90,0.00,,,0.00,CWS Microserver 1.4,2013-06-06 09:28:00,
2013-06-06 04:33:00,52.5,49.9,29.97,NNE,25,6.1,8.3,91,0.00,,,0.00,CWS Microserver 1.4,2013-06-06 09:33:00,
2013-06-06 04:38:00,52.3,49.8,29.97,NNE,15,5.5,8.3,91,0.00,,,0.00,CWS Microserver 1.4,2013-06-06 09:38:00,
2013-06-06 04:43:00,52.5,50.1,29.97,NNE,30,8.5,9.7,91,0.00,,,0.00,CWS Microserver 1.4,2013-06-06 09:43:00,
2013-06-06 04:48:00,52.5,50.1,29.97,NNE,28,8.8,10.2,91,0.00,,,0.00,CWS Microserver 1.4,2013-06-06 09:48:00,
2013-06-06 04:53:00,52.5,50.1,29.96,NNE,24,5.8,10.5,91,0.00,,,0.00,CWS Microserver 1.4,2013-06-06 09:53:00,
2013-06-06 04:58:00,52.5,50.1,29.96,NNE,32,8.0,11.0,91,0.00,,,0.00,CWS Microserver 1.4,2013-06-06 09:58:00,
2013-06-06 05:03:00,52.5,50.0,29.97,NNE,31,6.8,11.7,91,0.00,,,0.00,CWS Microserver 1.4,2013-06-06 10:03:00,
2013-06-06 05:08:00,52.5,49.9,29.97,NNE,25,7.2,12.2,91,0.00,,,0.00,CWS Microserver 1.4,2013-06-06 10:08:00,
2013-06-06 05:13:00,52.7,50.1,29.97,NNE,17,9.5,12.2,90,0.00,,,0.00,CWS Microserver 1.4,2013-06-06 10:13:00,
2013-06-06 05:18:00,52.7,49.9,29.98,NE,36,3.4,12.3,90,0.00,,,0.00,CWS Microserver 1.4,2013-06-06 10:18:00,
2013-06-06 05:23:00,52.7,49.9,29.98,NNE,29,6.4,12.3,90,0.00,,,0.00,CWS Microserver 1.4,2013-06-06 10:23:00,
2013-06-06 05:28:00,52.7,50.0,29.97,NNE,13,6.9,9.6,90,0.00,,,0.00,CWS Microserver 1.4,2013-06-06 10:28:00,
2013-06-06 05:33:00,52.7,49.9,29.97,NNE,22,4.9,9.5,90,0.00,,,0.00,CWS Microserver 1.4,2013-06-06 10:33:00,
2013-06-06 05:38:00,52.7,50.0,29.98,NNE,23,5.8,9.5,90,0.00,,,0.00,CWS Microserver 1.4,2013-06-06 10:38:00,
2013-06-06 05:43:00,52.7,49.9,29.98,NNE,12,6.4,8.7,90,0.00,,,0.00,CWS Microserver 1.4,2013-06-06 10:43:00,
2013-06-06 05:48:00,52.7,49.9,29.98,NNE,21,7.2,8.2,90,0.00,,,0.00,CWS Microserver 1.4,2013-06-06 10:48:00,
2013-06-06 05:53:00,52.7,49.8,29.98,North,356,5.9,7.9,89,0.00,,,0.00,CWS Microserver 1.4,2013-06-06 10:53:00,
2013-06-06 05:58:00,52.7,49.7,29.98,North,10,7.0,8.7,89,0.00,,,0.00,CWS Microserver 1.4,2013-06-06 10:58:00,
2013-06-06 06:03:00,52.5,49.6,29.98,North,358,5.4,9.4,89,0.00,,,0.00,CWS Microserver 1.4,2013-06-06 11:03:00,
2013-06-06 06:08:00,52.5,49.4,29.98,North,5,6.4,11.3,89,0.00,,,0.00,CWS Microserver 1.4,2013-06-06 11:08:00,
2013-06-06 06:13:00,52.5,49.6,29.98,North,10,6.5,11.3,89,0.00,,,0.00,CWS Microserver 1.4,2013-06-06 11:13:00,
2013-06-06 06:18:00,52.5,49.6,29.98,North,358,6.5,9.2,89,0.00,,,0.00,CWS Microserver 1.4,2013-06-06 11:18:00,
2013-06-06 06:23:00,52.5,49.5,29.98,NNE,13,8.1,8.8,89,0.00,,,0.00,CWS Microserver 1.4,2013-06-06 11:23:00,
2013-06-06 06:28:00,52.5,49.2,29.98,NNE,22,8.5,10.6,88,0.00,,,0.00,CWS Microserver 1.4,2013-06-06 11:28:00,
2013-06-06 06:33:00,52.5,49.6,29.98,NNE,12,5.6,10.6,89,0.00,,,0.00,CWS Microserver 1.4,2013-06-06 11:33:00,
2013-06-06 06:38:00,52.5,49.5,29.98,NNE,19,7.3,10.2,89,0.00,,,0.00,CWS Microserver 1.4,2013-06-06 11:38:00,
2013-06-06 06:43:00,52.5,49.4,29.98,NNE,13,8.6,10.5,89,0.00,,,0.00,CWS Microserver 1.4,2013-06-06 11:43:00,
2013-06-06 06:48:00,52.5,49.4,29.99,North,358,7.3,11.4,89,0.00,,,0.00,CWS Microserver 1.4,2013-06-06 11:48:00,
2013-06-06 06:53:00,52.5,49.1,29.99,NNE,15,9.6,12.9,88,0.00,,,0.00,CWS Microserver 1.4,2013-06-06 11:53:00,
2013-06-06 06:58:00,52.5,49.4,29.99,NNE,12,7.1,12.9,89,0.00,,,0.00,CWS Microserver 1.4,2013-06-06 11:58:00,
2013-06-06 07:03:00,52.5,49.3,29.99,North,2,10.8,12.3,88,0.00,,,0.00,CWS Microserver 1.4,2013-06-06 12:03:00,
2013-06-06 07:08:00,52.5,49.2,29.98,NE,34,9.0,12.3,88,0.00,,,0.00,CWS Microserver 1.4,2013-06-06 12:08:00,
2013-06-06 07:13:00,52.5,48.9,29.98,NNE,15,11.3,13.4,87,0.00,,,0.00,CWS Microserver 1.4,2013-06-06 12:13:00,
2013-06-06 07:18:00,52.5,49.0,29.99,NNE,22,12.9,13.4,87,0.00,,,0.00,CWS Microserver 1.4,2013-06-06 12:18:00,
2013-06-06 07:23:00,52.5,49.1,29.99,NNE,32,7.9,13.4,88,0.00,,,0.00,CWS Microserver 1.4,2013-06-06 12:23:00,
2013-06-06 07:28:00,52.5,49.1,29.99,NNE,26,6.7,13.5,88,0.00,,,0.00,CWS Microserver 1.4,2013-06-06 12:28:00,
2013-06-06 07:33:00,52.7,49.2,29.99,NNE,24,9.1,13.5,88,0.00,,,0.00,CWS Microserver 1.4,2013-06-06 12:33:00,
2013-06-06 07:38:00,52.5,49.2,29.99,NNE,18,7.0,13.2,88,0.00,,,0.00,CWS Microserver 1.4,2013-06-06 12:38:00,
2013-06-06 07:43:00,52.5,48.9,29.99,NNE,16,11.3,13.5,87,0.00,,,0.00,CWS Microserver 1.4,2013-06-06 12:43:00,
2013-06-06 07:48:00,52.5,49.1,29.99,NNE,20,10.2,13.5,88,0.00,,,0.00,CWS Microserver 1.4,2013-06-06 12:48:00,
2013-06-06 07:53:00,52.5,49.1,29.99,NNE,26,8.3,12.6,88,0.00,,,0.00,CWS Microserver 1.4,2013-06-06 12:53:00,
2013-06-06 07:58:00,52.5,49.1,29.99,NNE,25,10.3,12.5,88,0.00,,,0.00,CWS Microserver 1.4,2013-06-06 12:58:00,
2013-06-06 08:03:00,52.5,49.1,29.99,NNE,18,9.9,12.5,88,0.00,,,0.00,CWS Microserver 1.4,2013-06-06 13:03:00,
2013-06-06 08:08:00,52.5,49.2,29.99,NNE,21,9.6,12.5,88,0.00,,,0.00,CWS Microserver 1.4,2013-06-06 13:08:00,
2013-06-06 08:13:00,52.5,49.1,29.99,NNE,25,10.2,12.0,88,0.00,,,0.00,CWS Microserver 1.4,2013-06-06 13:13:00,
2013-06-06 08:18:00,52.8,49.5,29.99,NNE,27,7.0,12.0,88,0.00,,,0.00,CWS Microserver 1.4,2013-06-06 13:18:00,
2013-06-06 08:23:00,52.8,49.4,29.99,NNE,14,10.9,12.0,88,0.00,,,0.00,CWS Microserver 1.4,2013-06-06 13:23:00,
2013-06-06 08:28:00,52.8,49.3,30.00,NNE,23,7.6,11.9,87,0.00,,,0.00,CWS Microserver 1.4,2013-06-06 13:28:00,
2013-06-06 08:33:00,52.8,49.2,30.00,NNE,24,9.8,11.9,87,0.00,,,0.00,CWS Microserver 1.4,2013-06-06 13:33:00,
2013-06-06 08:38:00,52.8,49.0,30.00,NNE,20,10.7,11.7,86,0.00,,,0.00,CWS Microserver 1.4,2013-06-06 13:38:00,
2013-06-06 08:43:00,53.2,49.5,30.00,NNE,12,4.9,10.8,87,0.00,,,0.00,CWS Microserver 1.4,2013-06-06 13:43:00,
2013-06-06 08:48:00,53.2,49.4,30.00,NE,40,8.5,10.7,86,0.00,,,0.00,CWS Microserver 1.4,2013-06-06 13:48:00,
2013-06-06 08:53:00,53.0,49.1,30.00,NNE,16,6.0,9.9,86,0.00,,,0.00,CWS Microserver 1.4,2013-06-06 13:53:00,
2013-06-06 08:58:00,53.2,49.3,30.00,NNE,20,9.5,10.7,86,0.00,,,0.00,CWS Microserver 1.4,2013-06-06 13:58:00,
2013-06-06 09:03:00,53.2,49.4,30.00,NNE,14,7.9,10.7,86,0.00,,,0.00,CWS Microserver 1.4,2013-06-06 14:03:00,
2013-06-06 09:08:00,53.6,49.3,30.01,NNE,24,9.7,11.6,85,0.00,,,0.00,CWS Microserver 1.4,2013-06-06 14:08:00,
2013-06-06 09:13:00,53.6,49.7,30.01,NNE,15,6.7,11.6,86,0.00,,,0.00,CWS Microserver 1.4,2013-06-06 14:13:00,
2013-06-06 09:18:00,53.6,49.3,30.01,NNE,15,9.6,10.8,85,0.00,,,0.00,CWS Microserver 1.4,2013-06-06 14:18:00,
2013-06-06 09:23:00,53.6,49.4,30.01,North,357,6.5,12.1,85,0.00,,,0.00,CWS Microserver 1.4,2013-06-06 14:23:00,
2013-06-06 09:28:00,53.7,49.1,30.01,NNE,13,9.6,12.1,84,0.00,,,0.00,CWS Microserver 1.4,2013-06-06 14:28:00,
2013-06-06 09:33:00,53.4,48.8,30.01,North,0,8.1,12.4,84,0.00,,,0.00,CWS Microserver 1.4,2013-06-06 14:33:00,
2013-06-06 09:38:00,53.6,49.0,30.01,North,350,7.2,12.4,84,0.00,,,0.00,CWS Microserver 1.4,2013-06-06 14:38:00,
2013-06-06 09:43:00,53.6,49.1,30.01,NNW,346,4.7,12.7,84,0.00,,,0.00,CWS Microserver 1.4,2013-06-06 14:43:00,
2013-06-06 09:48:00,53.9,48.9,30.01,North,3,9.0,12.7,83,0.00,,,0.00,CWS Microserver 1.4,2013-06-06 14:48:00,
2013-06-06 09:53:00,53.7,48.9,30.01,North,0,8.6,11.6,83,0.00,,,0.00,CWS Microserver 1.4,2013-06-06 14:53:00,
2013-06-06 09:58:00,53.7,48.7,30.01,NNE,13,11.7,13.0,83,0.00,,,0.00,CWS Microserver 1.4,2013-06-06 14:58:00,
2013-06-06 10:08:00,54.3,48.7,30.01,North,5,8.4,12.6,81,0.00,,,0.00,CWS Microserver 1.4,2013-06-06 15:08:00,
2013-06-06 10:13:00,54.1,48.5,30.01,NNE,20,5.7,12.7,81,0.00,,,0.00,CWS Microserver 1.4,2013-06-06 15:13:00,
2013-06-06 10:18:00,54.5,48.5,30.01,North,359,9.5,12.7,80,0.00,,,0.00,CWS Microserver 1.4,2013-06-06 15:18:00,
2013-06-06 10:23:00,54.5,48.0,30.01,North,0,10.5,13.3,78,0.00,,,0.00,CWS Microserver 1.4,2013-06-06 15:23:00,
2013-06-06 10:28:00,54.3,48.3,30.01,NNE,15,10.7,13.3,80,0.00,,,0.00,CWS Microserver 1.4,2013-06-06 15:28:00,
2013-06-06 10:33:00,54.6,48.2,30.01,North,355,9.5,12.8,79,0.00,,,0.00,CWS Microserver 1.4,2013-06-06 15:33:00,
2013-06-06 10:38:00,54.3,48.6,30.01,NNE,21,5.5,11.4,81,0.00,,,0.00,CWS Microserver 1.4,2013-06-06 15:38:00,
2013-06-06 10:43:00,54.3,48.5,30.01,North,1,12.5,13.0,80,0.00,,,0.00,CWS Microserver 1.4,2013-06-06 15:43:00,
2013-06-06 10:48:00,53.9,48.1,30.01,NNE,15,12.7,13.8,80,0.00,,,0.00,CWS Microserver 1.4,2013-06-06 15:48:00,
2013-06-06 10:53:00,54.1,48.4,30.01,NNW,339,9.7,14.1,81,0.00,,,0.00,CWS Microserver 1.4,2013-06-06 15:53:00,
2013-06-06 10:58:00,54.6,47.8,30.01,North,349,7.9,14.1,77,0.00,,,0.00,CWS Microserver 1.4,2013-06-06 15:58:00,
2013-06-06 11:03:00,55.0,48.3,30.01,North,11,9.4,12.5,78,0.00,,,0.00,CWS Microserver 1.4,2013-06-06 16:03:00,
2013-06-06 11:08:00,54.5,47.7,30.01,NNW,333,7.9,12.4,77,0.00,,,0.00,CWS Microserver 1.4,2013-06-06 16:08:00,
2013-06-06 11:13:00,54.6,48.0,30.01,NNW,341,9.7,12.7,78,0.00,,,0.00,CWS Microserver 1.4,2013-06-06 16:13:00,
2013-06-06 11:18:00,54.6,47.5,30.01,North,7,8.1,13.7,76,0.00,,,0.00,CWS Microserver 1.4,2013-06-06 16:18:00,
2013-06-06 11:23:00,55.0,47.8,30.01,NNE,14,9.6,13.7,76,0.00,,,0.00,CWS Microserver 1.4,2013-06-06 16:23:00,
2013-06-06 11:28:00,55.2,47.9,30.01,NNW,334,8.2,13.2,76,0.00,,,0.00,CWS Microserver 1.4,2013-06-06 16:28:00,
2013-06-06 11:33:00,55.4,48.2,30.01,NNW,348,7.6,12.7,76,0.00,,,0.00,CWS Microserver 1.4,2013-06-06 16:33:00,
2013-06-06 11:38:00,55.7,47.7,30.01,NNW,331,9.6,13.0,74,0.00,,,0.00,CWS Microserver 1.4,2013-06-06 16:38:00,
2013-06-06 11:43:00,55.5,47.3,30.01,North,352,9.1,13.0,74,0.00,,,0.00,CWS Microserver 1.4,2013-06-06 16:43:00,
2013-06-06 11:48:00,55.5,47.6,30.01,NW,320,6.1,12.5,74,0.00,,,0.00,CWS Microserver 1.4,2013-06-06 16:48:00,
2013-06-06 11:53:00,55.5,47.6,30.01,North,359,8.6,12.5,74,0.00,,,0.00,CWS Microserver 1.4,2013-06-06 16:53:00,
2013-06-06 11:58:00,55.9,47.8,30.01,NNW,332,6.1,11.8,74,0.00,,,0.00,CWS Microserver 1.4,2013-06-06 16:58:00,
2013-06-06 12:03:00,56.3,48.0,30.01,NW,307,4.6,10.9,73,0.00,,,0.00,CWS Microserver 1.4,2013-06-06 17:03:00,
2013-06-06 12:08:00,56.4,47.3,30.01,North,350,9.2,11.6,71,0.00,,,0.00,CWS Microserver 1.4,2013-06-06 17:08:00,
2013-06-06 12:13:00,56.3,47.5,30.01,NNW,335,6.1,12.3,72,0.00,,,0.00,CWS Microserver 1.4,2013-06-06 17:13:00,
2013-06-06 12:18:00,56.4,46.9,30.01,North,7,7.1,13.2,70,0.00,,,0.00,CWS Microserver 1.4,2013-06-06 17:18:00,
2013-06-06 12:23:00,56.4,46.8,30.01,NNW,337,2.7,13.2,70,0.00,,,0.00,CWS Microserver 1.4,2013-06-06 17:23:00,
2013-06-06 12:28:00,57.0,47.0,30.01,North,359,7.4,12.0,69,0.00,,,0.00,CWS Microserver 1.4,2013-06-06 17:28:00,
2013-06-06 12:33:00,56.8,47.2,30.01,North,9,5.5,12.0,70,0.00,,,0.00,CWS Microserver 1.4,2013-06-06 17:33:00,
2013-06-06 12:38:00,57.0,46.7,30.01,NW,319,3.8,11.0,68,0.00,,,0.00,CWS Microserver 1.4,2013-06-06 17:38:00,
2013-06-06 12:43:00,57.0,46.1,30.01,NNW,339,10.5,11.3,67,0.00,,,0.00,CWS Microserver 1.4,2013-06-06 17:43:00,
2013-06-06 12:48:00,57.0,47.3,30.01,NNW,332,6.4,11.4,69,0.00,,,0.00,CWS Microserver 1.4,2013-06-06 17:48:00,
2013-06-06 12:53:00,57.0,46.2,30.01,North,358,8.9,13.5,67,0.00,,,0.00,CWS Microserver 1.4,2013-06-06 17:53:00,
2013-06-06 12:58:00,57.0,47.2,30.01,NW,308,10.4,13.5,69,0.00,,,0.00,CWS Microserver 1.4,2013-06-06 17:58:00,
2013-06-06 13:03:00,56.8,46.3,30.01,NNW,328,8.8,11.7,68,0.00,,,0.00,CWS Microserver 1.4,2013-06-06 18:03:00,
2013-06-06 13:13:00,56.8,46.3,30.01,NNW,340,7.9,13.6,68,0.00,,,0.00,CWS Microserver 1.4,2013-06-06 18:13:00,
2013-06-06 13:18:00,57.0,47.1,30.01,NW,307,6.7,13.6,69,0.00,,,0.00,CWS Microserver 1.4,2013-06-06 18:18:00,
2013-06-06 13:23:00,57.2,46.5,30.01,NW,325,8.2,13.2,67,0.00,,,0.00,CWS Microserver 1.4,2013-06-06 18:23:00,
2013-06-06 13:28:00,57.3,46.6,30.01,NNW,334,9.6,13.2,67,0.00,,,0.00,CWS Microserver 1.4,2013-06-06 18:28:00,
2013-06-06 13:33:00,57.3,46.3,30.01,NNW,341,8.9,13.9,66,0.00,,,0.00,CWS Microserver 1.4,2013-06-06 18:33:00,
2013-06-06 13:43:00,57.5,46.3,30.01,North,359,12.1,12.6,66,0.00,,,0.00,CWS Microserver 1.4,2013-06-06 18:43:00,
2013-06-06 13:48:00,57.5,46.3,30.01,NNW,335,6.5,14.6,66,0.00,,,0.00,CWS Microserver 1.4,2013-06-06 18:48:00,
2013-06-06 13:53:00,57.7,46.4,30.01,North,8,7.0,14.6,66,0.00,,,0.00,CWS Microserver 1.4,2013-06-06 18:53:00,
2013-06-06 13:58:00,58.2,46.6,30.01,North,349,7.4,12.9,65,0.00,,,0.00,CWS Microserver 1.4,2013-06-06 18:58:00,
2013-06-06 14:03:00,58.2,47.2,30.01,NW,307,5.5,13.7,66,0.00,,,0.00,CWS Microserver 1.4,2013-06-06 19:03:00,
2013-06-06 14:08:00,58.8,46.5,30.01,NNW,344,10.2,13.7,63,0.00,,,0.00,CWS Microserver 1.4,2013-06-06 19:08:00,
2013-06-06 14:18:00,59.5,47.2,30.01,WNW,303,6.6,11.9,63,0.00,,,0.00,CWS Microserver 1.4,2013-06-06 19:18:00,
2013-06-06 14:23:00,59.1,46.3,30.00,North,2,7.7,17.3,62,0.00,,,0.00,CWS Microserver 1.4,2013-06-06 19:23:00,
2013-06-06 14:28:00,58.6,47.1,30.00,NNE,16,14.2,17.3,65,0.00,,,0.00,CWS Microserver 1.4,2013-06-06 19:28:00,
2013-06-06 14:33:00,58.4,46.5,30.00,North,11,10.1,15.9,64,0.00,,,0.00,CWS Microserver 1.4,2013-06-06 19:33:00,
2013-06-06 14:38:00,58.6,46.2,30.01,North,351,8.6,15.3,63,0.00,,,0.00,CWS Microserver 1.4,2013-06-06 19:38:00,
2013-06-06 14:43:00,58.6,46.8,30.01,NNE,27,4.0,13.2,64,0.00,,,0.00,CWS Microserver 1.4,2013-06-06 19:43:00,
2013-06-06 14:48:00,58.4,46.9,30.00,North,9,8.6,13.3,65,0.00,,,0.00,CWS Microserver 1.4,2013-06-06 19:48:00,
2013-06-06 14:53:00,58.4,47.3,30.00,NNE,23,11.3,13.3,66,0.00,,,0.00,CWS Microserver 1.4,2013-06-06 19:53:00,
2013-06-06 14:58:00,58.6,46.8,30.00,NNW,338,10.9,12.9,65,0.00,,,0.00,CWS Microserver 1.4,2013-06-06 19:58:00,
2013-06-06 15:03:00,59.0,46.7,30.00,NNE,14,6.1,12.4,63,0.00,,,0.00,CWS Microserver 1.4,2013-06-06 20:03:00,
2013-06-06 15:08:00,59.0,46.2,30.00,North,0,7.9,15.7,62,0.00,,,0.00,CWS Microserver 1.4,2013-06-06 20:08:00,
2013-06-06 15:13:00,59.1,46.2,30.00,NNW,334,7.7,15.7,62,0.00,,,0.00,CWS Microserver 1.4,2013-06-06 20:13:00,
2013-06-06 15:18:00,59.7,46.6,30.00,North,351,11.7,13.1,61,0.00,,,0.00,CWS Microserver 1.4,2013-06-06 20:18:00,
2013-06-06 15:23:00,59.7,46.6,30.00,NNW,338,5.3,13.1,62,0.00,,,0.00,CWS Microserver 1.4,2013-06-06 20:23:00,
2013-06-06 15:28:00,59.3,46.3,30.00,NNW,346,11.0,11.8,62,0.00,,,0.00,CWS Microserver 1.4,2013-06-06 20:28:00,
2013-06-06 15:33:00,59.1,47.2,30.00,NNE,30,4.1,11.8,64,0.00,,,0.00,CWS Microserver 1.4,2013-06-06 20:33:00,
2013-06-06 15:38:00,59.3,46.6,30.00,North,4,9.1,12.5,62,0.00,,,0.00,CWS Microserver 1.4,2013-06-06 20:38:00,
2013-06-06 15:43:00,59.3,46.7,30.00,NNW,336,9.7,13.3,63,0.00,,,0.00,CWS Microserver 1.4,2013-06-06 20:43:00,
2013-06-06 15:48:00,59.1,46.5,30.00,North,5,12.9,15.8,63,0.00,,,0.00,CWS Microserver 1.4,2013-06-06 20:48:00,
2013-06-06 15:53:00,59.1,46.8,30.00,NNE,18,7.6,15.8,63,0.00,,,0.00,CWS Microserver 1.4,2013-06-06 20:53:00,
2013-06-06 15:58:00,59.1,47.6,30.00,NNE,18,7.0,15.5,65,0.00,,,0.00,CWS Microserver 1.4,2013-06-06 20:58:00,
2013-06-06 16:03:00,59.1,46.9,30.00,NNE,12,9.8,15.5,64,0.00,,,0.00,CWS Microserver 1.4,2013-06-06 21:03:00,
2013-06-06 16:08:00,59.1,46.6,30.00,North,2,8.9,14.7,63,0.00,,,0.00,CWS Microserver 1.4,2013-06-06 21:08:00,
2013-06-06 16:13:00,59.1,46.3,30.00,NNE,17,12.1,14.7,62,0.00,,,0.00,CWS Microserver 1.4,2013-06-06 21:13:00,
2013-06-06 16:18:00,59.0,46.9,30.00,NNE,22,10.5,13.8,64,0.00,,,0.00,CWS Microserver 1.4,2013-06-06 21:18:00,
2013-06-06 16:23:00,58.8,47.4,30.00,NNE,15,7.3,14.6,65,0.00,,,0.00,CWS Microserver 1.4,2013-06-06 21:23:00,
2013-06-06 16:28:00,59.0,46.8,30.00,NNE,19,12.2,14.6,63,0.00,,,0.00,CWS Microserver 1.4,2013-06-06 21:28:00,
2013-06-06 16:33:00,58.6,47.0,30.00,NNE,25,13.3,14.2,65,0.00,,,0.00,CWS Microserver 1.4,2013-06-06 21:33:00,
2013-06-06 16:38:00,58.6,46.7,30.01,North,352,6.5,13.6,64,0.00,,,0.00,CWS Microserver 1.4,2013-06-06 21:38:00,
2013-06-06 16:43:00,58.6,46.7,30.01,North,356,7.1,13.6,64,0.00,,,0.00,CWS Microserver 1.4,2013-06-06 21:43:00,
2013-06-06 16:48:00,58.6,46.6,30.01,North,1,5.8,11.4,64,0.00,,,0.00,CWS Microserver 1.4,2013-06-06 21:48:00,
2013-06-06 16:53:00,58.8,46.7,30.01,NNW,339,9.2,10.9,64,0.00,,,0.00,CWS Microserver 1.4,2013-06-06 21:53:00,
2013-06-06 16:58:00,58.8,46.7,30.01,North,349,5.9,9.7,64,0.00,,,0.00,CWS Microserver 1.4,2013-06-06 21:58:00,
2013-06-06 17:03:00,59.1,47.2,30.01,North,350,6.1,9.9,64,0.00,,,0.00,CWS Microserver 1.4,2013-06-06 22:03:00,
2013-06-06 17:08:00,59.1,46.9,30.01,North,5,9.1,10.8,64,0.00,,,0.00,CWS Microserver 1.4,2013-06-06 22:08:00,
2013-06-06 17:13:00,59.3,47.1,30.01,North,5,9.7,13.3,64,0.00,,,0.00,CWS Microserver 1.4,2013-06-06 22:13:00,
2013-06-06 17:18:00,59.1,46.9,30.01,North,6,9.7,13.3,64,0.00,,,0.00,CWS Microserver 1.4,2013-06-06 22:18:00,
2013-06-06 17:23:00,59.5,46.9,30.01,NNW,342,10.2,12.5,63,0.00,,,0.00,CWS Microserver 1.4,2013-06-06 22:23:00,
2013-06-06 17:28:00,59.5,47.2,30.01,North,5,9.6,11.5,63,0.00,,,0.00,CWS Microserver 1.4,2013-06-06 22:28:00,
2013-06-06 17:33:00,59.5,47.2,30.01,NNW,336,7.5,11.5,63,0.00,,,0.00,CWS Microserver 1.4,2013-06-06 22:33:00,
2013-06-06 17:38:00,59.3,47.1,30.01,North,9,6.2,11.2,63,0.00,,,0.00,CWS Microserver 1.4,2013-06-06 22:38:00,
2013-06-06 17:43:00,59.3,47.3,30.01,North,356,9.5,11.7,64,0.00,,,0.00,CWS Microserver 1.4,2013-06-06 22:43:00,
2013-06-06 17:48:00,59.0,48.0,30.01,NNE,23,5.0,11.9,66,0.00,,,0.00,CWS Microserver 1.4,2013-06-06 22:48:00,
2013-06-06 17:53:00,59.1,47.4,30.01,North,6,10.2,13.7,65,0.00,,,0.00,CWS Microserver 1.4,2013-06-06 22:53:00,
2013-06-06 17:58:00,59.0,47.1,30.01,North,9,9.9,13.8,64,0.00,,,0.00,CWS Microserver 1.4,2013-06-06 22:58:00,
2013-06-06 18:03:00,59.1,47.2,30.01,North,10,12.3,14.4,64,0.00,,,0.00,CWS Microserver 1.4,2013-06-06 23:03:00,
2013-06-06 18:08:00,59.0,47.6,30.01,North,350,7.7,14.4,66,0.00,,,0.00,CWS Microserver 1.4,2013-06-06 23:08:00,
2013-06-06 18:13:00,59.1,47.9,30.01,North,0,8.6,13.8,66,0.00,,,0.00,CWS Microserver 1.4,2013-06-06 23:13:00,
2013-06-06 18:18:00,59.1,48.0,30.01,North,359,9.9,12.4,66,0.00,,,0.00,CWS Microserver 1.4,2013-06-06 23:18:00,
2013-06-06 18:23:00,59.3,48.1,30.01,NNE,12,7.0,13.7,66,0.00,,,0.00,CWS Microserver 1.4,2013-06-06 23:23:00,
2013-06-06 18:28:00,59.5,47.7,30.01,NNE,23,9.8,13.7,64,0.00,,,0.00,CWS Microserver 1.4,2013-06-06 23:28:00,
2013-06-06 18:33:00,59.3,47.8,30.01,NNE,16,13.3,15.9,65,0.00,,,0.00,CWS Microserver 1.4,2013-06-06 23:33:00,
2013-06-06 18:38:00,58.8,48.4,30.01,NE,41,10.4,16.5,68,0.00,,,0.00,CWS Microserver 1.4,2013-06-06 23:38:00,
2013-06-06 18:43:00,58.1,48.3,30.01,NE,51,13.0,16.5,69,0.00,,,0.00,CWS Microserver 1.4,2013-06-06 23:43:00,
2013-06-06 18:48:00,58.1,48.3,30.01,NE,52,9.3,13.9,69,0.00,,,0.00,CWS Microserver 1.4,2013-06-06 23:48:00,
2013-06-06 18:53:00,57.9,48.2,30.01,NE,53,7.9,13.4,70,0.00,,,0.00,CWS Microserver 1.4,2013-06-06 23:53:00,
2013-06-06 18:58:00,58.1,48.7,30.01,NE,46,7.3,10.0,71,0.00,,,0.00,CWS Microserver 1.4,2013-06-06 23:58:00,
2013-06-06 19:03:00,58.1,48.4,30.01,NE,41,9.0,9.0,70,0.00,,,0.00,CWS Microserver 1.4,2013-06-07 00:03:00,
2013-06-06 19:08:00,58.2,48.0,30.01,NE,44,8.7,10.5,68,0.00,,,0.00,CWS Microserver 1.4,2013-06-07 00:08:00,
2013-06-06 19:13:00,58.1,47.9,30.01,NE,40,7.4,10.5,68,0.00,,,0.00,CWS Microserver 1.4,2013-06-07 00:13:00,
2013-06-06 19:18:00,58.2,48.3,30.01,NNE,22,4.4,10.7,69,0.00,,,0.00,CWS Microserver 1.4,2013-06-07 00:18:00,
2013-06-06 19:23:00,58.2,48.0,30.02,NE,38,8.7,12.9,68,0.00,,,0.00,CWS Microserver 1.4,2013-06-07 00:23:00,
2013-06-06 19:28:00,58.2,47.6,30.02,NNE,28,7.9,13.6,67,0.00,,,0.00,CWS Microserver 1.4,2013-06-07 00:28:00,
2013-06-06 19:33:00,58.1,48.0,30.02,NE,43,7.2,13.6,69,0.00,,,0.00,CWS Microserver 1.4,2013-06-07 00:33:00,
2013-06-06 19:38:00,58.1,48.1,30.02,NNE,21,9.5,12.4,69,0.00,,,0.00,CWS Microserver 1.4,2013-06-07 00:38:00,
2013-06-06 19:43:00,58.1,47.3,30.02,NNE,17,8.3,13.1,67,0.00,,,0.00,CWS Microserver 1.4,2013-06-07 00:43:00,
2013-06-06 19:48:00,58.1,48.2,30.02,NNE,15,4.6,13.1,69,0.00,,,0.00,CWS Microserver 1.4,2013-06-07 00:48:00,
2013-06-06 19:53:00,58.1,48.2,30.01,NNE,28,3.8,10.8,69,0.00,,,0.00,CWS Microserver 1.4,2013-06-07 00:53:00,
2013-06-06 19:58:00,57.9,47.4,30.01,NNE,29,9.7,11.9,68,0.00,,,0.00,CWS Microserver 1.4,2013-06-07 00:58:00,
2013-06-06 20:03:00,57.9,47.6,30.02,NE,35,7.5,13.1,68,0.00,,,0.00,CWS Microserver 1.4,2013-06-07 01:03:00,
2013-06-06 20:08:00,57.9,47.4,30.02,NE,48,7.0,13.1,68,0.00,,,0.00,CWS Microserver 1.4,2013-06-07 01:08:00,
2013-06-06 20:13:00,57.7,47.1,30.02,NNE,27,10.9,12.1,67,0.00,,,0.00,CWS Microserver 1.4,2013-06-07 01:13:00,
2013-06-06 20:18:00,57.7,47.4,30.02,North,10,5.2,12.1,68,0.00,,,0.00,CWS Microserver 1.4,2013-06-07 01:18:00,
2013-06-06 20:23:00,57.7,47.6,30.02,NE,45,9.3,12.9,69,0.00,,,0.00,CWS Microserver 1.4,2013-06-07 01:23:00,
2013-06-06 20:28:00,57.5,47.6,30.02,NNE,30,7.5,12.9,69,0.00,,,0.00,CWS Microserver 1.4,2013-06-07 01:28:00,
2013-06-06 20:33:00,57.3,47.9,30.02,NE,47,8.0,12.5,70,0.00,,,0.00,CWS Microserver 1.4,2013-06-07 01:33:00,
2013-06-06 20:38:00,57.2,48.2,30.02,NE,37,7.0,12.2,71,0.00,,,0.00,CWS Microserver 1.4,2013-06-07 01:38:00,
2013-06-06 20:43:00,57.0,48.0,30.02,NE,46,8.0,12.3,72,0.00,,,0.00,CWS Microserver 1.4,2013-06-07 01:43:00,
2013-06-06 20:48:00,57.0,48.1,30.02,NE,39,10.4,13.1,72,0.00,,,0.00,CWS Microserver 1.4,2013-06-07 01:48:00,
2013-06-06 20:53:00,56.6,47.6,30.02,NNE,30,7.0,13.1,71,0.00,,,0.00,CWS Microserver 1.4,2013-06-07 01:53:00,
2013-06-06 20:58:00,56.4,47.5,30.02,NNE,26,6.3,12.7,72,0.00,,,0.00,CWS Microserver 1.4,2013-06-07 01:58:00,
2013-06-06 21:03:00,56.3,47.3,30.02,NNE,18,7.0,11.2,71,0.00,,,0.00,CWS Microserver 1.4,2013-06-07 02:03:00,
2013-06-06 21:08:00,56.1,47.5,30.02,NNE,21,4.9,10.5,72,0.00,,,0.00,CWS Microserver 1.4,2013-06-07 02:08:00,
2013-06-06 21:13:00,55.9,47.4,30.02,NE,39,2.6,11.0,73,0.00,,,0.00,CWS Microserver 1.4,2013-06-07 02:13:00,
2013-06-06 21:18:00,55.7,47.4,30.02,NNE,25,5.2,11.0,73,0.00,,,0.00,CWS Microserver 1.4,2013-06-07 02:18:00,
2013-06-06 21:23:00,55.7,47.5,30.03,NNE,30,7.4,9.5,73,0.00,,,0.00,CWS Microserver 1.4,2013-06-07 02:23:00,
2013-06-06 21:33:00,55.4,47.8,30.03,NNE,19,4.2,8.5,75,0.00,,,0.00,CWS Microserver 1.4,2013-06-07 02:33:00,
2013-06-06 21:38:00,55.2,48.0,30.03,NNE,32,4.8,8.5,76,0.00,,,0.00,CWS Microserver 1.4,2013-06-07 02:38:00,
2013-06-06 21:43:00,55.2,48.0,30.03,NNE,26,7.9,8.2,76,0.00,,,0.00,CWS Microserver 1.4,2013-06-07 02:43:00,
2013-06-06 21:48:00,55.2,47.9,30.03,NNE,28,4.9,9.2,76,0.00,,,0.00,CWS Microserver 1.4,2013-06-07 02:48:00,
2013-06-06 21:53:00,55.4,47.9,30.03,NNE,14,4.8,9.8,76,0.00,,,0.00,CWS Microserver 1.4,2013-06-07 02:53:00,
2013-06-06 21:58:00,55.2,48.0,30.03,NNE,27,8.1,9.8,76,0.00,,,0.00,CWS Microserver 1.4,2013-06-07 02:58:00,
2013-06-06 22:03:00,55.2,48.0,30.04,NE,50,5.4,9.0,76,0.00,,,0.00,CWS Microserver 1.4,2013-06-07 03:03:00,
2013-06-06 22:08:00,55.2,48.1,30.04,NE,40,5.4,8.4,76,0.00,,,0.00,CWS Microserver 1.4,2013-06-07 03:08:00,
2013-06-06 22:13:00,55.2,48.1,30.04,NE,50,5.4,7.9,77,0.00,,,0.00,CWS Microserver 1.4,2013-06-07 03:13:00,
2013-06-06 22:18:00,55.2,48.2,30.04,NE,55,3.8,8.8,77,0.00,,,0.00,CWS Microserver 1.4,2013-06-07 03:18:00,
2013-06-06 22:23:00,55.2,48.3,30.04,NE,45,8.4,9.1,77,0.00,,,0.00,CWS Microserver 1.4,2013-06-07 03:23:00,
2013-06-06 22:28:00,55.2,48.3,30.04,NE,41,9.5,10.1,77,0.00,,,0.00,CWS Microserver 1.4,2013-06-07 03:28:00,
2013-06-06 22:33:00,55.2,48.4,30.04,NE,47,6.2,10.3,77,0.00,,,0.00,CWS Microserver 1.4,2013-06-07 03:33:00,
2013-06-06 22:38:00,55.0,48.5,30.04,NE,45,4.8,10.3,78,0.00,,,0.00,CWS Microserver 1.4,2013-06-07 03:38:00,
2013-06-06 22:43:00,55.0,48.6,30.04,NE,48,6.4,9.1,79,0.00,,,0.00,CWS Microserver 1.4,2013-06-07 03:43:00,
2013-06-06 22:48:00,55.0,48.5,30.04,NE,41,6.0,8.5,78,0.00,,,0.00,CWS Microserver 1.4,2013-06-07 03:48:00,
2013-06-06 22:53:00,54.8,48.5,30.04,NNE,15,5.3,8.2,79,0.00,,,0.00,CWS Microserver 1.4,2013-06-07 03:53:00,
2013-06-06 22:58:00,54.6,48.8,30.04,NE,42,3.3,6.6,80,0.00,,,0.00,CWS Microserver 1.4,2013-06-07 03:58:00,
2013-06-06 23:03:00,54.6,48.5,30.04,NE,38,6.4,7.4,80,0.00,,,0.00,CWS Microserver 1.4,2013-06-07 04:03:00,
2013-06-06 23:08:00,54.6,48.6,30.04,NE,38,2.6,7.4,80,0.00,,,0.00,CWS Microserver 1.4,2013-06-07 04:08:00,
2013-06-06 23:13:00,54.6,48.4,30.04,NE,47,4.9,7.9,79,0.00,,,0.00,CWS Microserver 1.4,2013-06-07 04:13:00,
2013-06-06 23:18:00,54.6,48.4,30.04,NE,41,5.2,8.7,79,0.00,,,0.00,CWS Microserver 1.4,2013-06-07 04:18:00,
2013-06-06 23:23:00,54.5,48.4,30.04,NE,38,4.9,9.6,80,0.00,,,0.00,CWS Microserver 1.4,2013-06-07 04:23:00,
2013-06-06 23:28:00,54.3,48.2,30.03,NE,47,7.0,9.6,80,0.00,,,0.00,CWS Microserver 1.4,2013-06-07 04:28:00,
2013-06-06 23:33:00,54.3,48.4,30.03,NE,50,3.6,8.9,80,0.00,,,0.00,CWS Microserver 1.4,2013-06-07 04:33:00,
2013-06-06 23:38:00,54.1,48.4,30.03,NNE,30,4.8,7.4,81,0.00,,,0.00,CWS Microserver 1.4,2013-06-07 04:38:00,
2013-06-06 23:43:00,53.9,48.4,30.03,NE,44,4.1,7.4,81,0.00,,,0.00,CWS Microserver 1.4,2013-06-07 04:43:00,
2013-06-06 23:48:00,54.1,48.6,30.03,NE,54,5.7,8.6,81,0.00,,,0.00,CWS Microserver 1.4,2013-06-07 04:48:00,
2013-06-06 23:53:00,53.9,48.9,30.03,ENE,58,3.4,8.6,83,0.00,,,0.00,CWS Microserver 1.4,2013-06-07 04:53:00,
2013-06-06 23:58:00,53.6,48.6,30.03,ENE,63,4.8,7.5,83,0.00,,,0.00,CWS Microserver 1.4,2013-06-07 04:58:00,